Regional Weather Roundup
Issued by NWS Wakefield, VA

Home | Current Version | Previous Version | Text Only | Print | Product List | Glossary Off
Versions: 1 2 3 4 5 6 7 8 9 10 11 12 13 14 15 16 17 18 19 20 21 22 23 24 25 26 27 28 29 30 31 32 33 34 35 36 37 38 39 40 41 42 43 44 45 46 47 48 49 50

000
ASUS41 KAKQ 201610
RWRAKQ

REGIONAL WEATHER ROUNDUP
NATIONAL WEATHER SERVICE WAKEFIELD VA
1200 PM EDT SAT SEP 20 2014

Note: "fair" indicates few or no clouds below 12,000 feet with no
significant weather and/or obstructions to visibility. * = Denotes
station may not report precipitation (e.g., rain,snow,etc.),
thunder or fog.

VAZ042-051-052>054-056-201700-
NORTHERN VIRGINIA

CITY           SKY/WX    TMP DP  RH WIND       PRES   REMARKS
WASH NATIONAL  MOSUNNY   77  58  51 S7        30.23F
DULLES         MOSUNNY   73  57  57 VRB7      30.23F
FORT BELVOIR   SUNNY     74  59  59 VRB3      30.23F
QUANTICO       SUNNY     73  63  70 SW6       30.24F
FREDERICKSBRG* SUNNY     77  58  51 SE7       30.22F
STAFFORD*      SUNNY     75  59  56 SE5       30.27F
WARRENTON      SUNNY     78  62  57 CALM      30.22F
CULPEPER*      SUNNY     77  54  44 CALM      30.22F
MANASSAS*      SUNNY     75  63  64 S5        30.23F
LEESBURG*      SUNNY     75  61  60 S8        30.23F
WINCHESTER     MOSUNNY   73  55  53 SE8       30.20F
FRONT ROYAL*   PTSUNNY   75  55  50 SE6       30.19F
LURAY*         SUNNY     79  54  41 SW10      30.21F
$$

VAZ048-049-060>072-079>083-201700-
CENTRAL AND SOUTH CENTRAL VIRGINIA...AND NORTH CENTRAL NORTH CAROLINA

CITY           SKY/WX    TMP DP  RH WIND       PRES   REMARKS
RICHMOND       MOSUNNY   79  51  37 E5        30.21F
CHESTERFIELD*  SUNNY     77  54  44 CALM      30.23F
PETERSBURG*    SUNNY     77  53  43 NE9       30.22F
HANOVER        SUNNY     76  58  53 SE5       30.24F
TAPPAHANNOCK*  MOSUNNY   78  56  46 E5        30.23F
CHARLOTTSVILLE SUNNY     72  57  59 VRB5      30.22F
ORANGE*        SUNNY     73  54  49 CALM      30.23F
LOUISA*        SUNNY     75  54  46 SE6       30.21F
FARMVILLE*     SUNNY     77  57  50 CALM      30.20F
CREWE*         SUNNY     75  57  53 CALM      30.22F
FORT PICKETT*  SUNNY     74  58  55 N3        30.22F
LUNENBURG*     SUNNY     75  60  61 CALM      30.21F
SOUTH HILL*    SUNNY     77  61  57 N6        30.26F
LAWRENCEVILLE* SUNNY     75  60  60 NE6       30.21S
ROANOKE RAPIDS SUNNY     73  63  68 E7        30.20S
RALEIGH        MOSUNNY   75  59  57 E7        30.20S
$$

VAZ088>098-201700-
SOUTHEAST VIRGINIA

CITY           SKY/WX    TMP DP  RH WIND       PRES   REMARKS
NORFOLK        PTSUNNY   76  67  73 NE14      30.19F
VIRGINIA BEACH PTSUNNY   75  69  81 NE13      30.17F
NORFOLK NAVAL  CLOUDY    76  67  73 NE20      30.21F
WEST POINT*    MOSUNNY   79  60  52 NE7       30.23F
NEWPORT NEWS   CLOUDY    78  66  66 NE10      30.21F
LANGLEY AFB    PTSUNNY   74  67  77 NE10      30.20F
FORT EUSTIS    PTSUNNY   76  58  54 NE12      30.19F
WILLIAMSBURG*  MOSUNNY   81  64  57 E6        30.22F
HR EXEC AP*    PTSUNNY   77  66  69 NE13      30.20F
FRANKLIN*      PTSUNNY   79  64  61 E13       30.19F
WAKEFIELD      MOSUNNY   77  63  61 MISG      30.20F
$$

VAZ020-022-025-037-045-201700-
WEST CENTRAL AND SOUTHWEST VIRGINIA

CITY           SKY/WX    TMP DP  RH WIND       PRES   REMARKS
STAUNTON*      SUNNY     73  52  48 SE7       30.24F
HOT SPRINGS VA MOSUNNY   61  43  51 SW5       30.32F
LYNCHBURG      SUNNY     71  57  61 VRB3      30.24F
DANVILLE       SUNNY     75  60  59 N7        30.22F
SOUTH BOSTON*  NOT AVBL
MARTINSVILLE   SUNNY     75  56  52 CALM      30.25F
ROANOKE        MOSUNNY   71  56  58 SE5       30.25F
BLACKSBURG     SUNNY     70  59  68 CALM      30.28F
DUBLIN*        SUNNY     72  56  56 S3        30.27F
MARION*        SUNNY     71  56  58 E7        30.28F
HILLSVILLE*    SUNNY     68  53  58 S3        30.27F
RICHLANDS*     SUNNY     74  55  51 S5        30.25S
WISE*          SUNNY     72  54  53 S8        30.25F
ABINGDON*      SUNNY     74  56  52 S5        30.23F
$$

MDZ021>025-VAZ099-100-201700-
SOUTHERN MARYLAND AND THE DELMARVA PENINSULA

CITY           SKY/WX    TMP DP  RH WIND       PRES   REMARKS
PATUXENT RIVER MOSUNNY   74  63  68 E8        30.23F
BAY BRIDGE APT   N/A     73  55  53 SE9       30.23F
LEONARDTOWN    MOSUNNY   75  61  60 NE3       30.24F
DOVER          MOSUNNY   76  65  69 E14       30.23F
GEORGETOWN     CLOUDY    75  62  64 SE13      30.24F
EASTON         NOT AVBL
CAMBRIDGE      MOSUNNY   77  59  53 SE5       30.22F
SALISBURY      CLOUDY    77  64  64 E8        30.23F
OCEAN CITY     CLOUDY    74  65  73 E8        30.24S
WALLOPS ISLAND CLOUDY    74  64  71 E15       30.24R
ACCOMACK*      CLOUDY    73  63  68 E13G20    30.22S
$$

NCZ012>017-030>032-201700-
EASTERN NORTH CAROLINA

CITY           SKY/WX    TMP DP  RH WIND       PRES   REMARKS
ELIZABETH CITY PTSUNNY   77  68  73 NE16      30.15F
AHOSKIE*       MOSUNNY   74  65  72 N8        30.19F
EDENTON*       PTSUNNY   78  68  72 NE9G17    30.15F
CURRITUCK*     CLOUDY    74  67  78 NE9       30.17F
KILL DEVIL HLS PTSUNNY   74  69  83 NE12G18   30.13F
MANTEO         LGT RAIN  73  69  87 NE13G23   30.14S
CAPE HATTERAS  CLOUDY    72  71  97 N6        30.10F
TARBORO*       PTSUNNY   77  64  63 N9G16     30.19F
GOLDSBORO      PTSUNNY   75  68  78 N9        30.14F
WASHINGTON     PTSUNNY   76  66  71 NE12      30.14F
GREENVILLE     PTSUNNY   73  64  73 NE10      30.17F
NEW BERN       CLOUDY    77  68  73 NE12      30.13F
WILMINGTON     CLOUDY    76  67  73 N14       30.10F
$$

VAZ048-201700-
ELSEWHERE

CITY           SKY/WX    TMP DP  RH WIND       PRES   REMARKS
HARRISBURG PA  PTSUNNY   75  60  59 SW8       30.21F
BALTIMORE      PTSUNNY   75  59  57 VRB6      30.22F
ANNAPOLIS      PTSUNNY   72  61  68 SE12      30.23F
ANDREWS AFB    MOSUNNY   73  61  65 VRB3      30.23F
WILMINGTON DE  MOSUNNY   75  61  61 S14       30.25F
PHILADELPHIA   MOSUNNY   75  58  55 S9        30.25F
WILDWOOD NJ*   CLOUDY    73  61  64 SE9       30.26S
ATLANTIC CITY  CLOUDY    74  61  63 SE14      30.26S
HENDERSON NC   SUNNY     74  57  54 NE6       30.21F
GREENSBORO     MOSUNNY   74  57  55 VRB5      30.21F
ROCKY MOUNT    PTSUNNY   74  61  63 NE8       30.19F
FAYETTEVILLE   PTSUNNY   73  61  65 NE14      30.16F
CHARLOTTE      MOSUNNY   76  59  55 N12G18    30.20F
$$

VAZ100-201700-
MARINE

STATION/POSITION TIME  TEMP    WIND        PRES    WAVE   SWELL
                       AIR SEA DIR/SP/G            HT/PER HT/PER
                 (UTC) (F)     (DEG/KT/KT) (MB)    (FT/S) (FT/S)
44066 TX TWR #4  1600   70 72  130/ 16/ 19 1025.0F   5/ 9   3/ 9
CAPE MAY NJ      1600   72 75  120/ 12/ 17 1023.6F
LEWES DE         1600   73 71  120/ 11/ 15 1023.6F
15NM E FENWICK I 1600   72 71              1023.6F   5/ 8
OCEAN-CITY-INLET 1600   73 71  120/  6/  8 1023.5F
WACHAPREAGUE VA  1600   73 72   90/ 14/ 17 1023.3R
THOMAS POINT MD  1600   71 74  190/  7/  8 1024.7F
GOOSES REEF MD   1600   72     140/  2/  4 1024.3F
COVE POINT MD    1600   71     160/  6/  7 1023.7F
SOLOMONS ISLAND  1600      75                N/A
BISHOPS HEAD MD  1600   72 71   80/  3/  5 1023.3F
PINEY POINT MD   1600          170/  7/  9   N/A
POTOMAC MD       1600   71      80/  6/  8 1023.1S
CAMBRIDGE MD     1600   72 74   60/  5/  6 1023.5S
LEWISETTA VA     1600   70 73  100/  8/  9 1023.3F
RAPPAHANNOCK LGT 1600          360/ 10/ 10 1023.8R
STINGRAY PT      1600   72      70/  6/  8   N/A
YORK RVR RNG VA  1600   72      60/ 10/ 11 1022.7F
YORKTOWN VA      1600   72 76   60/  9/ 11 1022.9F
JAMESTOWN VA     1600   74     100/  8/ 14   N/A
DOMINION TERM VA 1600   74      50/  7/ 12 1022.8F
KIPTOPEKE VA     1600      78   80/  9/ 13   N/A
CHES BAY BRIDGE  1600   72 75   30/ 16/ 19 1021.8F
CAPE HENRY VA    1600   72      60/ 19/ 20 1020.8F
CHESAPEAKE LGHT  1500   70      60/ 23/ 25 1022.7R
WILLOUBY STN VA  1600   72      60/ 14/ 15 1021.4F
S CRANEY ISL VA  1600           20/ 16/ 19 1022.1F
CAPE HENRY BUOY  1600      75                N/A     6/ 8   2/11
1ST LANDING BUOY 1600   73      50/ 16/ 19 1021.9F
CAPE CHARLES BUO 1600      74                N/A     6/ 8   3/ 9
OFFSHORE WE BUOY 1600      74                N/A     7/ 9   5/ 9
64NM E OF VA BCH 1600   73 77   10/ 16/ 21 1020.8S   8/ 9   7/ 9
DUCK PIER NC     1600   72 74   30/ 23/ 24 1019.9F
44100 DUCK FRF   1500      74                N/A     8/ 9   2/11
44056 DUCK FRF   1600                        N/A     7/ 9   2/11
OREGON INLET NC  1600   72 72   30/ 14/ 18 1020.2F
HATTERAS NC      1600   73 73   10/ 11/ 13 1019.6F
DIAMOND SHLS NC  1600   81     110/ 14/ 16 1018.5F   8/10   7/10
CAPE LOOKOUT NC  1500   72      20/ 18/ 23 1019.2F
$$


USA.gov is the U.S. government's official web portal to all federal, state and local government web resources and services.